sat.trackr.live / text

‹ back to catalog

STARLINK-3935

NORAD 52549 · 2022-051S

PAYLOAD ACTIVE UNKNOWN

§ Identity

Operator
Country
US
Launch date
2022-05-13
Launch site
AFWTR
Launch vehicle
Mass (kg)
RCS (m²)

Purposes: comms

External: N2YO · Heavens-Above · Gunter

§ Orbital elements

Epoch: 2026-09-19T19:42:16.200576Z

Period
93.79 min
Inclination
53.1596°
Eccentricity
0.0001276
Mean motion
15.35398948 rev/d
Perigee alt
458.9 km
Apogee alt
460.6 km
Semi-major
6,837.9 km
B*
3.4662e-5
RAAN
324.9936°
Arg perigee
86.7690°
Mean anomaly
273.3460°
Rev number
24,092

§ Raw data

STARLINK-39351 52549U 22051S   26262.82102084  .00000829  00000+0  34662-4 0  99912 52549  53.1596 324.9936 0001276  86.7690 273.3460 15.35398948240921

JSON: /api/v1/satellites/52549 · /tle

For live sub-satellite position, see the globe view (requires WebGL).

§ Visibility from observer

Set your observer location to see the next 7 days of passes ≥ 10°. The values pass through the URL so the page stays shareable.

No JS? Fill the form by hand. The geolocation button needs JavaScript.